Weather in Kobda

Kazakhstan     50°08′57″N   55°40′17″E
temp.,
°C
wind,
m/s
gust,
m/s
humid.,
%
clouds,
%
prec.,
mm/h
press.,
hPa
HPBL,
m
18 april, sun
sun1823:00+12ese11765 0.3 101611
02:00+11ene33750 0.0 101623
05:00+9nw11830 0.0 101610
08:00+12nnw22709 0.0 101683
11:00+17wnw115221 0.0 1016705
14:00+20w334213 0.0 10151756
17:00+19w3343100 0.0 10141442
20:00+12wnw3483100 7.1 1016135
19 april, mon
mon1923:00+13w3684100 7.8 1016227
02:00+13nne3487100 1.1 101695
05:00+11ene5887100 1.7 1016260
08:00+10e10137898 0.0 1017553
11:00+6e111478100 0.1 1020622
14:00+3e101482100 0.5 1022594
17:00+3e10137686 0.7 1023720
20:00+4e91575100 0.0 1024804
20 april, tue
tue2023:00+3e91668100 0.0 1025793
02:00+2e91560100 0.0 1026779
05:000e9165999 0.0 1028617
08:000e10155784 0.0 1029694
11:00+4e1012405 0.0 10301020
14:00+6e910330 0.0 10301296
17:00+7e911310 0.0 10301327
20:00+5e711400 0.0 1030624
21 april, wed
wed2123:00+2e6144695 0.0 1032606
02:00+1ese715492 0.0 1031507
05:000ese6134915 0.0 1033425
08:00+1ese813425 0.0 1033600
11:00+7se8102912 0.0 1033935
14:00+11se892546 0.0 10321312
17:00+12se89256 0.0 10311363
20:00+9se5941100 0.0 1032192
22 april, thu
thu2223:00+6ese51149100 0.0 1033214
02:00+4se51254100 0.0 1034269
05:00+4ese51254100 0.0 1035251
08:00+5se51253100 0.0 1036390
11:00+10sse7936100 0.0 1035899
14:00+14sse893099 0.0 10341328
17:00+15sse792948 0.0 10331749
20:00+12se4844100 0.0 1033151